Flag for U.S.A. Weather past 2 weeks in Baker Island, U.S.A.

Now
88 °F

Scattered clouds.


Feels Like: 102 °F
Forecast: 82 / 85 °F
Wind: 12 mph from East

Location: Funafuti

Current Time: Sep 18, 2014 at 3:50:26 PM

Latest Report: Sep 18, 2014 at 3:00 PM


Visibility: N/A

Pressure: 29.77 "Hg

Humidity: 75%

Dew point: 79 °F

Location of Baker IslandLocation

Historic Weather in Baker Island — Graph

°F

Baker Island temperature yesterday

Maximum temperature yesterday: 88 °F (at 1:00 PM)
Minimum temperature yesterday: 81 °F (at 2:00 AM)
Average temperature yesterday: 84 °F

Past Weeks' High & Low Weather Summary

 TemperatureHumidityPressure
High90 °F (Sep 6, 1:00 PM)100% (Sep 4, 10:00 AM)29.95 "Hg (Sep 4, 10:00 AM)
Low77 °F (Sep 4, 10:00 AM)66% (Sep 9, 10:00 AM)29.74 "Hg (Sep 3, 4:00 PM)
Average84 °F82%29.82 "Hg
* Reported Sep 3 2:00 PM — Sep 18 2:00 PM, Baker Island, Weather by CustomWeather, © 2014

Note: Actual official high and low records may vary slightly from our data, if they occured in-between our weather recording intervals... More about our weather records

Advertising

Baker Island weather history for previous 24 hours

 ConditionsComfort  
Time TempWeatherWind HumidityBarometerVisibility
2:00 PM
Sep 18
88 °FScattered clouds.12 mph70%29.80 "HgN/A
1:00 PM88 °FScattered clouds.12 mph75%29.83 "HgN/A
12:00 PM88 °FBroken clouds.13 mph70%29.86 "HgN/A
11:00 AM86 °FBroken clouds.12 mph75%29.86 "HgN/A
9:00 AM86 °FBroken clouds.12 mph75%29.89 "HgN/A
8:00 AM84 °FBroken clouds.12 mph84%29.89 "HgN/A
5:00 AM82 °FPassing clouds.12 mph89%29.83 "HgN/A
4:00 AM82 °FPartly cloudy.7 mph84%29.83 "HgN/A
3:00 AM82 °FPartly cloudy.15 mph84%29.83 "HgN/A
2:00 AM81 °FPassing clouds.12 mphN/A29.83 "HgN/A
1:00 AM81 °FPassing clouds.12 mph89%29.86 "HgN/A
12:00 AM82 °FWarm.3 mph84%29.86 "HgN/A
9:00 PM
Sep 17
84 °FPassing clouds.12 mph79%29.89 "HgN/A
8:00 PM84 °FPartly cloudy.10 mph79%29.86 "HgN/A
7:00 PM84 °FPartly cloudy.9 mph84%29.86 "HgN/A
6:00 PM84 °FScattered showers. Partly cloudy.12 mph84%29.83 "HgN/A
5:00 PM86 °FScattered showers. Broken clouds.9 mph79%29.80 "HgN/A
4:00 PM86 °FBroken clouds.10 mph79%29.80 "HgN/A
3:00 PM86 °FBroken clouds.9 mph79%29.80 "HgN/A
Weather by CustomWeather, © 2014

See weather overviewHow to use our weather pages